| time (UTC) | temp F | wind direction | speed MPH | gust MPH | rain 1hr in | rain 24hr in | rain mn in | humidity % | barometer mb |
| 20260831231524 | 91 | 58 | 0.0 | 1.0 | 0.00 | 0.00 | 0.00 | 60 | 1017.5 |
| 20260831230540 | 92 | 58 | 1.0 | 2.0 | 0.00 | 0.00 | 0.00 | 60 | 1017.6 |
| 20260831225516 | 92 | 58 | 1.0 | 2.0 | 0.00 | 0.00 | 0.00 | 60 | 1017.7 |
| 20260831224532 | 93 | 59 | 1.0 | 2.0 | 0.00 | 0.00 | 0.00 | 59 | 1017.8 |
| 20260831223528 | 93 | 59 | 1.0 | 4.0 | 0.00 | 0.00 | 0.00 | 59 | 1017.7 |
| 20260831222523 | 93 | 62 | 0.0 | 2.0 | 0.00 | 0.00 | 0.00 | 59 | 1017.8 |
| 20260831221519 | 93 | 58 | 1.0 | 4.0 | 0.00 | 0.00 | 0.00 | 59 | 1017.8 |
| 20260831220535 | 93 | 62 | 1.0 | 2.0 | 0.00 | 0.00 | 0.00 | 59 | 1017.8 |
| 20260831215550 | 93 | 62 | 1.0 | 3.0 | 0.00 | 0.00 | 0.00 | 59 | 1017.9 |
| 20260831214526 | 94 | 59 | 2.0 | 7.0 | 0.00 | 0.00 | 0.00 | 59 | 1017.8 |
| 20260831213522 | 94 | 161 | 1.0 | 3.0 | 0.00 | 0.00 | 0.00 | 60 | 1018.0 |
| 20260831212518 | 93 | 44 | 1.0 | 3.0 | 0.00 | 0.00 | 0.00 | 60 | 1017.9 |
| 20260831211533 | 94 | 136 | 1.0 | 4.0 | 0.00 | 0.00 | 0.00 | 60 | 1018.0 |
| 20260831210530 | 95 | 201 | 1.0 | 2.0 | 0.00 | 0.00 | 0.00 | 60 | 1018.0 |
| 20260831205525 | 94 | 201 | 2.0 | 4.0 | 0.00 | 0.00 | 0.00 | 60 | 1018.2 |
| 20260831204521 | 94 | 90 | 1.0 | 3.0 | 0.00 | 0.00 | 0.00 | 60 | 1018.5 |
| 20260831203517 | 94 | 195 | 1.0 | 2.0 | 0.00 | 0.00 | 0.00 | 62 | 1018.3 |
| 20260831202533 | 94 | 136 | 2.0 | 4.0 | 0.00 | 0.00 | 0.00 | 62 | 1018.5 |
| 20260831201529 | 93 | 59 | 0.0 | 2.0 | 0.00 | 0.00 | 0.00 | 62 | 1018.6 |
| 20260831200525 | 92 | 61 | 1.0 | 6.0 | 0.00 | 0.00 | 0.00 | 64 | 1018.7 |
| 20260831195521 | 92 | 84 | 1.0 | 3.0 | 0.00 | 0.00 | 0.00 | 64 | 1018.9 |
| 20260831194517 | 92 | 61 | 1.0 | 3.0 | 0.00 | 0.00 | 0.00 | 63 | 1019.0 |
| 20260831193533 | 93 | 65 | 1.0 | 2.0 | 0.00 | 0.00 | 0.00 | 63 | 1019.1 |
| 20260831192529 | 93 | 37 | 1.0 | 4.0 | 0.00 | 0.00 | 0.00 | 64 | 1019.2 |
| 20260831191525 | 93 | 35 | 1.0 | 3.0 | 0.00 | 0.00 | 0.00 | 65 | 1019.2 |
| 20260831190541 | 91 | 34 | 0.0 | 3.0 | 0.00 | 0.00 | 0.00 | 67 | 1019.4 |
| 20260831185517 | 92 | 44 | 1.0 | 6.0 | 0.00 | 0.00 | 0.00 | 66 | 1019.6 |
| 20260831184613 | 93 | 244 | 1.0 | 2.0 | 0.00 | 0.00 | 0.00 | 67 | 1019.6 |
| 20260831183549 | 92 | 244 | 1.0 | 2.0 | 0.00 | 0.00 | 0.00 | 68 | 1019.8 |
| 20260831182525 | 91 | 244 | 1.0 | 4.0 | 0.00 | 0.00 | 0.00 | 69 | 1019.9 |
| 20260831181541 | 91 | 244 | 1.0 | 4.0 | 0.00 | 0.00 | 0.00 | 69 | 1020.1 |
| 20260831180517 | 90 | 244 | 1.0 | 2.0 | 0.00 | 0.00 | 0.00 | 69 | 1020.1 |
| 20260831175532 | 90 | 244 | 1.0 | 3.0 | 0.00 | 0.00 | 0.00 | 69 | 1020.1 |
| 20260831174528 | 92 | 244 | 0.0 | 2.0 | 0.00 | 0.00 | 0.00 | 67 | 1020.2 |
| 20260831173544 | 93 | 244 | 1.0 | 4.0 | 0.00 | 0.00 | 0.00 | 68 | 1020.4 |
| 20260831172600 | 92 | 245 | 1.0 | 3.0 | 0.00 | 0.00 | 0.00 | 70 | 1020.4 |
| 20260831171516 | 91 | 244 | 1.0 | 3.0 | 0.00 | 0.00 | 0.00 | 69 | 1020.5 |
| 20260831170532 | 91 | 244 | 1.0 | 4.0 | 0.00 | 0.00 | 0.00 | 72 | 1020.7 |
| 20260831165527 | 90 | 245 | 1.0 | 3.0 | 0.00 | 0.00 | 0.00 | 71 | 1020.8 |
| 20260831164523 | 90 | 245 | 2.0 | 4.0 | 0.00 | 0.00 | 0.00 | 72 | 1020.8 |
| 20260831163519 | 90 | 140 | 1.0 | 3.0 | 0.00 | 0.00 | 0.00 | 75 | 1021.0 |
| 20260831162536 | 90 | 194 | 1.0 | 3.0 | 0.00 | 0.00 | 0.00 | 75 | 1021.0 |
| 20260831161531 | 89 | 193 | 1.0 | 4.0 | 0.00 | 0.00 | 0.00 | 77 | 1021.0 |
| 20260831160527 | 88 | 195 | 1.0 | 2.0 | 0.00 | 0.00 | 0.00 | 77 | 1021.2 |
| 20260831155523 | 89 | 195 | 2.0 | 3.0 | 0.00 | 0.00 | 0.00 | 76 | 1021.1 |
| 20260831154519 | 89 | 161 | 2.0 | 6.0 | 0.00 | 0.00 | 0.00 | 79 | 1021.2 |
| 20260831153555 | 88 | 178 | 1.0 | 4.0 | 0.00 | 0.00 | 0.00 | 80 | 1021.2 |
| 20260831152531 | 88 | 176 | 2.0 | 7.0 | 0.00 | 0.00 | 0.00 | 81 | 1021.1 |
| 20260831151527 | 87 | 166 | 2.0 | 6.0 | 0.00 | 0.00 | 0.00 | 83 | 1021.1 |
| 20260831150523 | 86 | 179 | 1.0 | 2.0 | 0.00 | 0.00 | 0.00 | 83 | 1021.2 |
| 20260831145519 | 86 | 142 | 1.0 | 3.0 | 0.00 | 0.00 | 0.00 | 84 | 1021.2 |
| 20260831144535 | 85 | 123 | 1.0 | 4.0 | 0.00 | 0.00 | 0.00 | 85 | 1021.4 |
| 20260831143530 | 85 | 143 | 1.0 | 3.0 | 0.00 | 0.00 | 0.00 | 87 | 1021.1 |
| 20260831142547 | 84 | 139 | 2.0 | 4.0 | 0.00 | 0.00 | 0.00 | 88 | 1021.1 |
| 20260831141523 | 84 | 257 | 1.0 | 4.0 | 0.00 | 0.00 | 0.00 | 89 | 1021.2 |
| 20260831140539 | 83 | 257 | 2.0 | 6.0 | 0.00 | 0.00 | 0.00 | 89 | 1021.1 |
| 20260831135535 | 83 | 257 | 1.0 | 3.0 | 0.00 | 0.00 | 0.00 | 92 | 1021.1 |
| 20260831134531 | 82 | 257 | 1.0 | 3.0 | 0.00 | 0.00 | 0.00 | 93 | 1021.2 |
| 20260831133526 | 80 | 257 | 1.0 | 2.0 | 0.00 | 0.00 | 0.00 | 93 | 1021.1 |
| 20260831132522 | 80 | 257 | 1.0 | 3.0 | 0.00 | 0.00 | 0.00 | 94 | 1021.0 |
| 20260831131518 | 79 | 257 | 1.0 | 3.0 | 0.00 | 0.00 | 0.00 | 95 | 1021.0 |
| 20260831130534 | 77 | 257 | 1.0 | 3.0 | 0.00 | 0.00 | 0.00 | 96 | 1020.9 |
| 20260831125530 | 76 | 257 | 0.0 | 1.0 | 0.00 | 0.00 | 0.00 | 96 | 1020.7 |
| 20260831124526 | 75 | 0.0 | 0.0 | 0.00 | 0.00 | 0.00 | 96 | 1020.7 | |
| 20260831123522 | 74 | 257 | 0.0 | 1.0 | 0.00 | 0.00 | 0.00 | 96 | 1020.5 |
| 20260831122658 | 73 | 0.0 | 0.0 | 0.00 | 0.00 | 0.00 | 96 | 1020.5 | |
| 20260831121534 | 72 | 0.0 | 0.0 | 0.00 | 0.00 | 0.00 | 96 | 1020.4 | |
| 20260831120529 | 72 | 0.0 | 0.0 | 0.00 | 0.00 | 0.00 | 96 | 1020.2 | |
| 20260831115525 | 72 | 0.0 | 0.0 | 0.00 | 0.00 | 0.00 | 95 | 1020.0 | |
| 20260831114521 | 72 | 0.0 | 0.0 | 0.00 | 0.00 | 0.00 | 95 | 1020.0 | |
| 20260831113517 | 72 | 0.0 | 0.0 | 0.00 | 0.00 | 0.00 | 95 | 1019.8 | |
| 20260831112533 | 72 | 0.0 | 0.0 | 0.00 | 0.00 | 0.00 | 95 | 1019.8 | |
| 20260831111529 | 72 | 0.0 | 0.0 | 0.00 | 0.00 | 0.00 | 95 | 1019.7 | |
| 20260831110525 | 72 | 0.0 | 0.0 | 0.00 | 0.00 | 0.00 | 95 | 1019.8 | |
| 20260831105521 | 72 | 0.0 | 0.0 | 0.00 | 0.00 | 0.00 | 94 | 1019.5 | |
| 20260831104517 | 72 | 0.0 | 0.0 | 0.00 | 0.00 | 0.00 | 94 | 1019.4 | |
| 20260831103533 | 72 | 0.0 | 0.0 | 0.00 | 0.00 | 0.00 | 94 | 1019.2 | |
| 20260831102529 | 72 | 0.0 | 0.0 | 0.00 | 0.00 | 0.00 | 94 | 1019.1 | |
| 20260831101525 | 72 | 0.0 | 0.0 | 0.00 | 0.00 | 0.00 | 94 | 1019.1 | |
| 20260831100520 | 72 | 0.0 | 0.0 | 0.00 | 0.00 | 0.00 | 94 | 1019.0 | |
| 20260831095517 | 72 | 0.0 | 0.0 | 0.00 | 0.00 | 0.00 | 93 | 1018.9 | |
| 20260831094533 | 72 | 0.0 | 0.0 | 0.00 | 0.00 | 0.00 | 93 | 1018.8 | |
| 20260831093529 | 72 | 0.0 | 0.0 | 0.00 | 0.00 | 0.00 | 93 | 1018.8 | |
| 20260831092524 | 72 | 0.0 | 0.0 | 0.00 | 0.00 | 0.00 | 93 | 1018.9 | |
| 20260831091521 | 72 | 0.0 | 0.0 | 0.00 | 0.00 | 0.00 | 93 | 1018.8 | |
| 20260831090517 | 72 | 0.0 | 0.0 | 0.00 | 0.00 | 0.00 | 93 | 1018.8 | |
| 20260831085532 | 73 | 0.0 | 0.0 | 0.00 | 0.00 | 0.00 | 92 | 1018.8 | |
| 20260831084609 | 73 | 0.0 | 0.0 | 0.00 | 0.00 | 0.00 | 92 | 1018.7 | |
| 20260831083524 | 73 | 0.0 | 0.0 | 0.00 | 0.00 | 0.00 | 92 | 1018.5 | |
| 20260831082520 | 73 | 0.0 | 0.0 | 0.00 | 0.00 | 0.00 | 92 | 1018.4 | |
| 20260831081516 | 73 | 0.0 | 0.0 | 0.00 | 0.00 | 0.00 | 92 | 1018.5 | |
| 20260831080532 | 73 | 0.0 | 0.0 | 0.00 | 0.00 | 0.00 | 91 | 1018.5 | |
| 20260831075528 | 73 | 0.0 | 0.0 | 0.00 | 0.00 | 0.00 | 91 | 1018.5 | |
| 20260831074523 | 73 | 0.0 | 0.0 | 0.00 | 0.00 | 0.00 | 91 | 1018.6 | |
| 20260831073559 | 73 | 258 | 0.0 | 1.0 | 0.00 | 0.00 | 0.00 | 91 | 1018.7 |
| 20260831072536 | 73 | 0.0 | 0.0 | 0.00 | 0.00 | 0.00 | 91 | 1018.6 | |
| 20260831071532 | 74 | 258 | 0.0 | 1.0 | 0.00 | 0.00 | 0.00 | 90 | 1018.7 |
| 20260831070528 | 74 | 258 | 0.0 | 1.0 | 0.00 | 0.00 | 0.00 | 90 | 1018.6 |
| 20260831065523 | 74 | 0.0 | 0.0 | 0.00 | 0.00 | 0.00 | 90 | 1018.5 | |
| 20260831064519 | 74 | 0.0 | 0.0 | 0.00 | 0.00 | 0.00 | 90 | 1018.6 | |
| 20260831063555 | 74 | 0.0 | 0.0 | 0.00 | 0.00 | 0.00 | 89 | 1018.7 | |
| 20260831062537 | 74 | 0.0 | 0.0 | 0.00 | 0.00 | 0.00 | 89 | 1018.6 | |
| 20260831061527 | 74 | 258 | 0.0 | 1.0 | 0.00 | 0.00 | 0.00 | 89 | 1018.7 |
| 20260831060523 | 75 | 258 | 0.0 | 1.0 | 0.00 | 0.00 | 0.00 | 89 | 1018.8 |
| 20260831055519 | 75 | 258 | 0.0 | 1.0 | 0.00 | 0.00 | 0.00 | 88 | 1018.8 |
| 20260831054535 | 75 | 258 | 0.0 | 1.0 | 0.00 | 0.00 | 0.00 | 88 | 1018.8 |
| 20260831053551 | 75 | 0.0 | 0.0 | 0.00 | 0.00 | 0.00 | 87 | 1018.7 | |
| 20260831052527 | 75 | 0.0 | 0.0 | 0.00 | 0.00 | 0.00 | 87 | 1018.6 | |
| 20260831051522 | 75 | 258 | 0.0 | 1.0 | 0.00 | 0.00 | 0.00 | 87 | 1018.6 |
| 20260831050518 | 75 | 258 | 0.0 | 1.0 | 0.00 | 0.00 | 0.00 | 86 | 1018.8 |
| 20260831045535 | 76 | 258 | 0.0 | 1.0 | 0.00 | 0.00 | 0.00 | 86 | 1018.6 |
| 20260831044530 | 76 | 258 | 0.0 | 1.0 | 0.00 | 0.00 | 0.00 | 86 | 1018.7 |
| 20260831043526 | 76 | 0.0 | 0.0 | 0.00 | 0.00 | 0.00 | 85 | 1018.6 | |
| 20260831042541 | 76 | 258 | 0.0 | 1.0 | 0.00 | 0.00 | 0.00 | 85 | 1018.5 |
| 20260831041517 | 76 | 258 | 0.0 | 1.0 | 0.00 | 0.00 | 0.00 | 85 | 1018.7 |
| 20260831040533 | 77 | 258 | 0.0 | 1.0 | 0.00 | 0.00 | 0.00 | 84 | 1018.7 |
| 20260831035548 | 77 | 0.0 | 0.0 | 0.00 | 0.00 | 0.00 | 84 | 1018.6 | |
| 20260831034524 | 77 | 0.0 | 0.0 | 0.00 | 0.00 | 0.00 | 83 | 1018.7 | |
| 20260831033520 | 77 | 258 | 1.0 | 1.0 | 0.00 | 0.00 | 0.00 | 83 | 1018.8 |
| 20260831032516 | 77 | 0.0 | 0.0 | 0.00 | 0.00 | 0.00 | 82 | 1018.9 | |
| 20260831031552 | 78 | 0.0 | 0.0 | 0.00 | 0.00 | 0.00 | 82 | 1018.9 | |
| 20260831030528 | 78 | 0.0 | 0.0 | 0.00 | 0.00 | 0.00 | 82 | 1019.0 | |
| 20260831025524 | 78 | 258 | 0.0 | 1.0 | 0.00 | 0.00 | 0.00 | 81 | 1019.0 |
| 20260831024519 | 78 | 0.0 | 0.0 | 0.00 | 0.00 | 0.00 | 81 | 1018.9 | |
| 20260831023535 | 79 | 0.0 | 0.0 | 0.00 | 0.00 | 0.00 | 80 | 1018.8 | |
| 20260831022531 | 79 | 0.0 | 0.0 | 0.00 | 0.00 | 0.00 | 80 | 1018.6 | |
| 20260831021527 | 79 | 258 | 0.0 | 1.0 | 0.00 | 0.00 | 0.00 | 79 | 1018.7 |
| 20260831020523 | 80 | 0.0 | 0.0 | 0.00 | 0.00 | 0.00 | 79 | 1018.7 | |
| 20260831015518 | 80 | 258 | 0.0 | 1.0 | 0.00 | 0.00 | 0.00 | 78 | 1018.4 |
| 20260831014533 | 80 | 258 | 0.0 | 1.0 | 0.00 | 0.00 | 0.00 | 78 | 1018.3 |
| 20260831013529 | 81 | 258 | 0.0 | 1.0 | 0.00 | 0.00 | 0.00 | 77 | 1018.3 |
| 20260831012545 | 81 | 0.0 | 0.0 | 0.00 | 0.00 | 0.00 | 76 | 1018.1 | |
| 20260831011559 | 81 | 0.0 | 0.0 | 0.00 | 0.00 | 0.00 | 75 | 1018.0 | |
| 20260831010555 | 82 | 258 | 0.0 | 1.0 | 0.00 | 0.00 | 0.00 | 74 | 1017.9 |
| 20260831005531 | 83 | 258 | 0.0 | 1.0 | 0.00 | 0.00 | 0.00 | 73 | 1017.9 |
| 20260831004547 | 83 | 258 | 1.0 | 1.0 | 0.00 | 0.00 | 0.00 | 72 | 1018.0 |
| 20260831003522 | 84 | 258 | 0.0 | 1.0 | 0.00 | 0.00 | 0.00 | 71 | 1017.8 |
| 20260831002518 | 85 | 0.0 | 0.0 | 0.00 | 0.00 | 0.00 | 70 | 1017.7 | |
| 20260831001534 | 86 | 0.0 | 0.0 | 0.00 | 0.00 | 0.00 | 69 | 1017.9 | |
| 20260831000530 | 87 | 258 | 0.0 | 1.0 | 0.00 | 0.00 | 0.00 | 68 | 1017.9 |
| 20260830235525 | 87 | 258 | 0.0 | 1.0 | 0.00 | 0.00 | 0.00 | 68 | 1017.9 |
| 20260830234520 | 88 | 258 | 0.0 | 1.0 | 0.00 | 0.00 | 0.00 | 67 | 1017.9 |
| 20260830233516 | 88 | 258 | 0.0 | 1.0 | 0.00 | 0.00 | 0.00 | 66 | 1017.9 |
| 20260830232612 | 89 | 258 | 1.0 | 2.0 | 0.00 | 0.00 | 0.00 | 66 | 1017.9 |